Minneapolis Flying Cloud, MN

1:53 AM CDT on June 27, 2017 (GMT -0500)
Flying Cloud

Weather History for KFCM - December, 2011

Change the Weather History Date:

Saturday, December 3, 2011

  Actual Average Record
Temperature  
Mean Temperature 30 °F -  
Max Temperature 33 °F 34 °F 60 °F (1998)
Min Temperature 27 °F 20 °F -4 °F (2007)
Degree Days  
Heating Degree Days 35    
Moisture  
Dew Point 26 °F    
Average Humidity 86    
Maximum Humidity 93    
Minimum Humidity 69    
Precipitation  
Precipitation 0.18 in - - ()
Sea Level Pressure  
Sea Level Pressure 30.01 in    
Wind  
Wind Speed 6 mph (West)    
Max Wind Speed 15 mph    
Max Gust Speed 23 mph    
Visibility 3 miles    
Events Fog , Snow    
Averages and records for this station are not official NWS values.
T = Trace of Precipitation, MM = Missing Value Source: NWS Daily Summary

Daily Weather History Graph

Daily Weather History Graph

Search for Another Location

Airport or City:

Trip Planner

Search our weather history database for the weather conditions in past years. The results will help you decide how hot, cold, wet, or windy it might be!

Date:

Astronomy

Dec. 03, 2011 Rise Set
Actual Time 7:33 AM CST 4:33 PM CST
Civil Twilight 7:00 AM CST 5:06 PM CST
Nautical Twilight 6:23 AM CST 5:43 PM CST
Astronomical Twilight 5:48 AM CST 6:18 PM CST
Moon 12:51 PM CST (12/3) 12:47 AM CST (12/3)
Length of Visible Light 10h 06m
Length of Day
9h 00m
Waxing Gibbous, 63% of the Moon is Illuminated
Dec 3
Waxing Gibbous
Dec 10
Full
Dec 17
Last Quarter
Dec 24
New
Jan 1
First Quarter

Hourly Weather History & Observations

Time (CST) Temp. Windchill Dew Point Humidity Pressure Visibility Wind Dir Wind Speed Gust Speed Precip Events Conditions
12:53 AM 33.1 °F 23.0 °F 25.0 °F 72% 30.07 in 9.0 mi SSW 15.0 mph 23.0 mph N/A   Overcast
1:53 AM 30.9 °F 21.7 °F 25.0 °F 79% 30.06 in 7.0 mi SSW 11.5 mph - N/A   Clear
2:53 AM 30.0 °F 22.4 °F 24.1 °F 79% 30.06 in 7.0 mi SSW 8.1 mph - N/A   Clear
3:53 AM 28.9 °F 21.1 °F 24.1 °F 82% 30.06 in 6.0 mi SSW 8.1 mph - N/A   Haze
4:53 AM 28.9 °F 21.9 °F 24.1 °F 82% 30.06 in 6.0 mi SSW 6.9 mph - N/A   Haze
5:53 AM 28.9 °F 21.9 °F 24.1 °F 82% 30.07 in 6.0 mi SW 6.9 mph - N/A   Haze
6:53 AM 28.0 °F 21.7 °F 23.0 °F 81% 30.07 in 6.0 mi SW 5.8 mph - N/A   Haze
7:53 AM 27.0 °F 21.6 °F 23.0 °F 85% 30.09 in 4.0 mi WSW 4.6 mph - N/A   Clear
8:53 AM 28.0 °F 22.8 °F 23.0 °F 81% 30.10 in 4.0 mi SW 4.6 mph - N/A   Haze
9:53 AM 28.9 °F 21.9 °F 23.0 °F 78% 30.10 in 6.0 mi SSW 6.9 mph - N/A   Haze
10:53 AM 30.0 °F 23.2 °F 21.9 °F 72% 30.09 in 7.0 mi WSW 6.9 mph - N/A   Mostly Cloudy
11:53 AM 30.0 °F 26.5 °F 23.0 °F 75% 30.10 in 7.0 mi WSW 3.5 mph - N/A   Overcast
12:53 PM 32.0 °F - 23.0 °F 69% 30.02 in 10.0 mi Calm Calm - N/A   Overcast
2:53 PM 32.0 °F 28.7 °F 23.0 °F 69% 30.02 in 9.0 mi West 3.5 mph - N/A   Overcast
3:20 PM 32.0 °F - 24.8 °F 75% 30.00 in 1.8 mi Calm Calm - 0.00 in Snow Light Snow
3:27 PM 30.2 °F 25.4 °F 24.8 °F 80% 30.00 in 0.2 mi West 4.6 mph - 0.01 in Snow Heavy Snow
3:40 PM 28.4 °F - 26.6 °F 93% 30.00 in 0.2 mi Calm Calm - 0.03 in Fog , Snow Snow
3:53 PM 28.9 °F - 27.0 °F 92% 30.04 in 0.2 mi Calm Calm - 0.05 in Fog , Snow Snow
4:36 PM 28.4 °F - 26.6 °F 93% 29.99 in 0.5 mi Calm Calm - 0.04 in Fog , Snow Snow
4:53 PM 30.0 °F - 27.0 °F 88% 30.03 in 1.0 mi Calm Calm - 0.05 in Snow Light Snow
5:04 PM 30.2 °F 26.7 °F 28.4 °F 93% 30.00 in 1.0 mi NW 3.5 mph - 0.01 in Snow Light Snow
5:53 PM 30.0 °F - 28.0 °F 92% 30.02 in 1.5 mi Calm Calm - 0.02 in Snow Light Snow
6:28 PM 30.2 °F 26.7 °F 28.4 °F 93% 29.97 in 2.0 mi North 3.5 mph - 0.01 in Snow Light Snow
6:39 PM 30.2 °F - 28.4 °F 93% 29.96 in 4.0 mi Calm Calm - 0.01 in Snow Light Snow
6:53 PM 30.0 °F - 28.0 °F 92% 30.01 in 5.0 mi Calm Calm - 0.01 in   Overcast
7:13 PM 30.2 °F - 28.4 °F 93% 29.97 in 1.8 mi Calm Calm - 0.00 in Snow Light Snow
7:22 PM 30.2 °F - 28.4 °F 93% 29.97 in 1.5 mi Calm Calm - 0.00 in Snow Light Snow
7:53 PM 30.0 °F - 28.0 °F 92% 30.01 in 1.5 mi Calm Calm - 0.00 in Snow Light Snow
8:48 PM 30.2 °F - 28.4 °F 93% 29.96 in 1.0 mi Calm Calm - 0.02 in Snow Light Snow
8:53 PM 30.0 °F 26.5 °F 28.0 °F 92% 30.00 in 1.0 mi West 3.5 mph - 0.02 in Snow Light Snow
9:05 PM 30.2 °F - 28.4 °F 93% 29.96 in 1.0 mi Calm Calm - 0.01 in Snow Light Snow
9:29 PM 30.2 °F 22.6 °F 28.4 °F 93% 29.95 in 1.5 mi NNW 8.1 mph - 0.01 in Snow Light Snow
9:36 PM 30.2 °F 22.6 °F 28.4 °F 93% 29.95 in 1.8 mi NNW 8.1 mph - 0.01 in Snow Light Snow
9:44 PM 30.2 °F 23.4 °F 28.4 °F 93% 29.95 in 2.0 mi NNW 6.9 mph - 0.01 in Snow Light Snow
9:53 PM 30.0 °F 24.1 °F 28.0 °F 92% 29.98 in 2.0 mi NNW 5.8 mph - 0.01 in Snow Light Snow
10:17 PM 30.2 °F 23.4 °F 26.6 °F 86% 29.94 in 1.5 mi NNW 6.9 mph - 0.01 in Snow Light Snow
10:35 PM 30.2 °F 23.4 °F 26.6 °F 86% 29.94 in 2.0 mi NW 6.9 mph - 0.01 in Snow Light Snow
10:41 PM 30.2 °F 24.3 °F 26.6 °F 86% 29.94 in 1.5 mi NW 5.8 mph - 0.01 in Snow Light Snow
10:53 PM 30.0 °F 24.1 °F 27.0 °F 88% 29.98 in 1.8 mi NW 5.8 mph - 0.01 in Snow Light Snow
11:01 PM 30.2 °F 22.6 °F 26.6 °F 86% 29.94 in 2.0 mi NNW 8.1 mph - 0.01 in Snow Light Snow
11:35 PM 30.2 °F 22.6 °F 26.6 °F 86% 29.94 in 2.0 mi NW 8.1 mph - 0.01 in Snow Light Snow
11:53 PM 28.9 °F 21.1 °F 27.0 °F 92% 29.97 in 2.5 mi NW 8.1 mph - 0.01 in Snow Light Snow